Regional Weather Roundup
Issued by NWS Wilmington, NC

Home | Current Version | Previous Version | Text Only | Print | Product List | Glossary On
Versions: 1 2 3 4 5 6 7 8 9 10 11 12 13 14 15 16 17 18 19 20 21 22 23 24 25 26 27 28 29 30 31 32 33 34 35 36 37 38 39 40 41 42 43 44 45 46 47 48 49 50
000
ASUS42 KILM 012112
RWRILM
RWRILM
REGIONAL HOURLY WEATHER ROUNDUP
NATIONAL WEATHER SERVICE WILMINGTON NC
500 PM EDT WED APR 01 2015

NOTE: "FAIR" INDICATES FEW OR NO CLOUDS BELOW 12,000 FEET WITH NO
SIGNIFICANT WEATHER AND/OR OBSTRUCTIONS TO VISIBILITY.

...............WFO WILMINGTON COUNTY WARNING AREA...............

......COASTAL NC AND SC COUNTIES......

CITY           SKY/WX    TMP DP  RH WIND       PRES   REMARKS
WILMINGTON     SUNNY     60  41  49 E15       30.12R
N MYRTLE BEACH SUNNY     60  47  61 SE13      30.10S
MYRTLE BEACH   SUNNY     63  48  59 SE14      30.13R

......INLAND NC AND SC COUNTIES.......

CITY           SKY/WX    TMP DP  RH WIND       PRES   REMARKS
LUMBERTON      SUNNY     70  40  33 N5        30.09S
ELIZABETHTOWN  SUNNY     68  33  27 E7        30.10F
WHITEVILLE     SUNNY     69  36  30 NE6       30.08S
FLORENCE       SUNNY     72  41  32 E12       30.07S
DARLINGTON     SUNNY     73  39  29 N8        30.08S

....................REST OF NORTH CAROLINA......................

.........EASTERN NC.........

CITY           SKY/WX    TMP DP  RH WIND       PRES   REMARKS
CAPE HATTERAS  SUNNY     48  30  49 NE15G25   30.17R
JACKSONVILLE   SUNNY     64  30  27 N7        30.13S
MOREHEAD CITY  SUNNY     57  37  47 NE13      30.15R
KENANSVILLE    SUNNY     63  30  28 CALM      30.14R
NEW BERN       SUNNY     63  30  28 NE10      30.14R
ELIZABETH CITY SUNNY     54  33  45 E10       30.17R

.........CENTRAL NC.........

CITY           SKY/WX    TMP DP  RH WIND       PRES   REMARKS
RALEIGH DURHAM MOSUNNY   66  29  24 NW5       30.12S
ROCKY MOUNT    SUNNY     63  29  27 SE3       30.14R
ROANOKE RAPIDS NOT AVBL
FAYETTEVILLE   SUNNY     68  32  26 CALM      30.10S
HOFFMAN        SUNNY     70  32  25 N2        30.12S

.........WESTERN NC.........

CITY           SKY/WX    TMP DP  RH WIND       PRES   REMARKS
CHARLOTTE      MOSUNNY   73  16  11 VRB5      30.08S
GREENSBORO     MOSUNNY   66  24  20 VRB3      30.09F
HICKORY        NOT AVBL
BOONE          NOT AVBL
ASHEVILLE      NOT AVBL

.....................REST OF SOUTH CAROLINA.....................

.........EASTERN SC.........

CITY           SKY/WX    TMP DP  RH WIND       PRES   REMARKS
CHARLESTON     MOSUNNY   67  53  61 E16       30.09R
BEAUFORT MCAS  PTSUNNY   65  56  72 E18       30.06R
HILTON HEAD    MOSUNNY   64  57  77 E10G18    30.08R

.........CENTRAL SC.........

CITY           SKY/WX    TMP DP  RH WIND       PRES   REMARKS
COLUMBIA       MOSUNNY   76  42  29 E7        30.04S
ORANGEBURG     SUNNY     75  43  31 NE6       30.05S
SUMTER SHAW    SUNNY     75  42  31 NE8       30.04S

.........WESTERN SC.........

CITY           SKY/WX    TMP DP  RH WIND       PRES   REMARKS
GREENVILLE     NOT AVBL
ROCK HILL      SUNNY     74  28  18 NE6       30.07F
ANDERSON       SUNNY     79  38  22 SE8       30.02S
CLEMSON        NOT AVBL
GREENWOOD      SUNNY     76  41  28 E6        30.06R


...................COASTAL AND OFFSHORE REPORTS..................

................LOCAL PIERS AND NC RESERVE................


STATION/POSITION TIME  SKY/WX   TEMP    WIND        PRES    VSBY
                                AIR SEA DIR/SP/G
                 (UTC)          (F)     (DEG/KT/KT) (MB)    (MI)
JOHNY MRCER PIER 2000            56 60  100/ 15/ 16 1019.3R
NC RESRV MASNBRO NOT AVBL
OCEAN CREST PIER 2102            58 58   70/ 17/ 19 1018.8S
SPRINGMAID  PIER 2000            56 58   80/ 15/ 17 1019.2S


................COASTAL AND OFFSHORE BUOYS................


STATION/POSITION TIME  SKY/WX   TEMP    WIND        PRES    VSBY
                                AIR SEA DIR/SP/G
                 (UTC)          (F)     (DEG/KT/KT) (MB)    (MI)
DIMNDSHOAL 41025 NOT AVBL
CAPE LOOKOUT     2100            51      50/ 15/ 16 1020.9R
ONSLOW BAY 41036 NOT AVBL
5 WRITEBCH 41038 2000            56 56  110/ 14/ 16 1019.7R
MASONBORO  41110 2019               56                N/A
WVE H/P(F/S)=  4/ 5 WND WVE H/P(F/S)=  3/ 5

WILM HARBR 41108 2011               59                N/A
WVE H/P(F/S)=  4/ 4 WND WVE H/P(F/S)=  3/ 4

27WRITEBCH 41037 2000            53 64   80/ 14/ 16 1021.6R
FRYING PAN 41013 2050            58 63   70/ 17/ 21 1019.7F
WVE H/P(F/S)=  6/ 6 WND WVE H/P(F/S)=  7/ 6

SUNST NRSH 41024 2008            57     110/ 16/ 19   N/A
CAPRS NRSH 41029 NOT AVBL
EDISTO     41004 2050            64 69   60/ 19/ 25 1017.5R
WVE H/P(F/S)=  5/ 5 WND WVE H/P(F/S)=  5/ 5 SWL H/P/D(F/S/D)=  2/11



..........OFFSHORE BUOYS BEYOND 100 NM OFFSHORE...........
.....IN A TRIANGLE---HAT TO BERMUDA TO BAHAMAS TO HAT.....


STATION/POSITION TIME  SKY/WX   TEMP    WIND        PRES    VSBY
                                AIR SEA DIR/SP/G
                 (UTC)          (F)     (DEG/KT/KT) (MB)    (MI)
150E HAT   41001 NOT AVBL
W BERMUDA  41048 2050            68 69  270/ 17/ 21 1014.3R
WVE H/P(F/S)=  7/ 8 WND WVE H/P(F/S)=  7/ 8 SWL H/P/D(F/S/D)=  2/240/11

ATLANTIC S 41049 2050            72 75  140/  6/  8 1019.4S
WVE H/P(F/S)=  4/11 SWL H/P/D(F/S/D)=  5/320/11

E BAHAMAS  41046 2050            76 79   70/  6/  8 1018.6R
WVE H/P(F/S)=  4/10 WND WVE H/P(F/S)=  2/ 4 SWL H/P/D(F/S/D)=  3/ 10/10

NE BAHAMAS 41047 2050            73 75  240/  8/ 10 1019.3F
WVE H/P(F/S)=  4/ 7 WND WVE H/P(F/S)=  2/ 4 SWL H/P/D(F/S/D)=  3/320/ 7

120E CANVRL41010 2020            74 76  270/ 12/ 14 1017.6F

END



USA.gov is the U.S. government's official web portal to all federal, state and local government web resources and services.